Location: Wildlife_Club
(35.6000°N, 81.4330°W)
Time: 14:27:07
(UTC-04:00)

A-11 Canister half - Pass Details

Date: 03 July 2019
Orbit: 1514 x 1685 km, 47.2° (Epoch: 18 July)

Event Time Altitude Azimuth Distance (km) Brightness Sun altitude
Rises 07:04:08 0° 205° (SSW) 4,916 11.2 8.2°
Reaches altitude 10° 07:07:30 10° 199° (SSW) 3,936 10.8 8.9°
Maximum altitude 07:16:50 43° 132° (SE) 2,224 10.3 10.6°
Drops below altitude 10° 07:26:04 10° 65° (ENE) 3,911 14.2 12.4°
Sets 07:29:23 0° 59° (ENE) 4,882 13.4 13.0°
